Theta_e
303 303 302 302 302 302 303 302 302 302 302 301 301 301 301 301 301 298 294 295 296 299 299 297 297 295 309 312 312 309 308 307 308 308 309 311 315 316 317 316 314 313 312 313 314 315 316
303 303 302 302 301 302 303 302 301 301 301 301 301 301 301 301 297 293 294 296 300 299 298 299 298 298 308 310 308 307 307 308 307 307 307 308 315 315 317 316 317 317 318 314 314 314 315
302 302 302 302 301 302 302 302 301 301 301 300 301 300 299 297 292 294 300 302 303 299 301 299 297 304 307 309 307 308 306 306 307 308 306 307 307 311 314 318 318 318 318 317 316 313 315
302 303 302 301 301 302 302 302 301 301 300 301 301 300 299 295 293 298 301 303 304 302 305 304 306 306 310 308 307 306 306 305 305 307 308 311 307 306 312 317 318 318 317 318 317 315 315
302 302 301 301 301 301 301 301 300 299 300 300 299 299 299 295 295 302 304 305 305 304 306 308 309 310 309 307 307 307 307 306 306 307 309 309 310 305 307 311 314 317 316 316 316 315 315
301 302 301 301 301 301 300 300 300 299 300 300 299 300 299 294 301 304 304 306 305 307 306 307 309 308 307 306 308 308 307 307 305 305 307 310 310 304 304 307 313 314 314 311 315 316 317
301 301 301 301 301 301 300 300 300 299 299 299 298 298 296 294 302 304 304 306 304 306 304 306 306 306 306 307 309 309 308 308 307 305 305 306 308 312 305 306 311 314 315 315 312 312 316
299 300 300 300 301 300 300 300 300 299 298 298 297 296 295 296 303 304 302 303 303 303 306 309 306 306 307 308 309 309 309 307 307 305 305 304 306 308 312 309 309 313 316 316 314 315 316
300 299 300 301 300 300 300 300 299 299 298 296 296 296 295 298 303 305 303 302 303 304 306 310 307 308 307 308 308 309 308 308 308 307 305 304 305 307 308 311 311 309 309 314 315 315 315
299 298 298 300 300 300 300 299 299 299 297 294 295 296 296 299 304 305 305 304 303 306 311 307 307 309 308 307 307 309 309 308 308 310 310 305 305 306 308 309 310 311 310 311 313 315 316
300 299 297 298 299 300 299 299 299 297 296 294 295 295 297 301 303 306 305 305 305 308 300 305 306 307 306 305 305 309 309 308 310 310 310 311 310 306 305 306 310 314 314 312 313 314 314
299 299 298 298 297 298 298 298 297 296 294 294 295 298 300 302 303 305 304 306 307 308 299 305 306 305 305 304 305 308 306 307 310 309 309 309 309 309 306 307 308 310 312 314 312 312 313
299 299 298 298 298 297 297 296 295 296 293 295 298 301 301 303 305 303 306 307 306 298 306 305 305 306 305 304 306 306 305 305 310 311 310 309 309 309 307 306 307 310 316 318 312 312 315
298 298 298 298 298 297 295 297 297 294 295 296 298 301 303 305 304 304 306 307 298 306 306 305 305 306 305 307 307 306 305 305 309 310 310 309 310 310 309 309 312 313 317 319 315 313 315
297 297 297 297 297 298 296 296 295 295 296 296 299 304 305 303 304 306 306 303 300 306 304 305 306 305 307 306 306 306 306 309 311 310 313 311 310 309 309 309 311 313 315 313 312 316 316
298 297 297 297 297 296 296 294 295 295 296 296 299 304 305 300 303 306 304 308 308 305 304 305 307 307 306 305 307 307 307 311 311 310 310 311 313 309 309 309 310 310 312 313 317 321 320
298 297 297 296 296 296 295 295 295 295 296 296 300 304 304 301 305 303 299 304 307 304 304 304 305 305 306 306 306 306 307 309 309 310 308 311 311 308 310 309 309 310 314 315 315 316 316
297 297 297 296 296 296 296 295 294 295 296 298 302 301 303 303 299 298 300 307 305 305 303 303 304 305 305 304 305 305 306 305 308 309 309 310 311 312 308 307 309 312 313 314 318 319 318
297 296 297 296 296 296 296 295 294 296 296 299 301 301 303 303 301 299 304 306 303 303 303 303 303 302 303 303 304 306 304 304 304 302 305 305 306 307 306 306 308 310 311 312 314 316 319
296 296 296 296 295 295 295 295 293 296 295 297 300 299 299 299 297 303 305 304 303 303 301 302 302 302 303 304 304 303 302 303 302 302 307 305 306 308 309 310 310 311 311 311 313 316 316
296 296 296 296 296 295 295 295 294 296 294 298 296 299 300 301 294 302 304 304 304 304 303 302 302 303 303 302 302 302 302 301 301 302 301 302 308 308 307 307 307 307 308 308 310 310 312
296 296 295 295 295 295 295 295 294 295 295 299 294 300 302 301 303 303 303 300 304 304 302 302 303 303 301 301 301 301 301 300 300 300 301 300 301 302 301 302 304 305 305 306 307 307 309
297 296 296 295 295 295 295 295 294 295 295 300 304 300 300 303 303 302 302 304 306 303 302 302 301 301 302 301 300 299 299 299 299 300 300 300 301 300 302 304 304 298 305 306 307 307 308
296 296 296 296 295 295 295 295 294 295 295 298 301 302 299 298 302 303 306 305 305 303 302 302 301 301 301 299 299 299 299 300 300 300 300 300 301 301 300 303 296 301 304 304 305 308 311
296 296 296 296 295 295 295 295 294 295 295 296 299 301 298 296 301 303 304 304 303 303 302 302 302 300 299 299 298 297 298 302 304 303 302 301 301 303 304 305 304 305 306 309 308 310 309
296 296 296 296 296 295 295 295 295 294 295 295 298 299 300 295 298 302 302 302 300 301 301 303 301 300 300 298 295 294 296 301 302 304 303 303 303 305 304 310 305 308 308 307 308 308 306
296 296 296 296 296 295 295 294 295 294 294 295 298 299 300 296 298 300 298 299 302 300 297 300 300 300 299 294 291 294 299 302 303 305 304 302 304 307 309 310 311 308 307 306 309 307 305
296 296 296 296 296 296 295 295 294 294 294 295 296 299 300 298 297 299 299 300 299 298 296 299 296 297 296 294 293 295 301 301 301 303 303 301 300 299 301 298 301 305 304 306 306 303 306
296 296 296 295 295 295 295 295 294 294 294 294 294 296 297 298 296 297 297 298 298 300 297 298 297 299 299 295 296 295 296 296 298 299 299 299 301 301 302 302 301 300 302 306 304 305 305
Wind_Speed
4 4 5 6 6 6 7 7 9 10 11 12 13 15 16 18 18 18 19 19 19 21 20 18 17 15 7 3 5 14 19 17 15 18 12 7 8 6 5 6 8 14 14 15 21 19 14
3 3 4 5 6 6 6 8 9 10 11 13 14 15 17 18 18 19 19 21 20 18 14 13 12 9 3 3 15 17 18 18 15 12 17 11 5 11 9 7 7 9 16 14 17 20 17
3 4 3 5 6 6 6 7 9 10 12 13 14 15 18 18 17 18 20 18 18 11 11 10 8 5 3 4 11 14 20 19 19 19 5 13 18 5 10 11 9 13 13 13 17 10 15
3 3 4 5 5 5 6 8 9 11 13 14 16 17 19 19 18 19 21 19 13 4 8 6 6 2 3 3 13 21 20 20 18 20 18 17 13 8 3 7 8 6 8 5 12 14 14
3 3 4 5 5 6 7 8 10 12 13 14 17 17 19 21 18 21 24 17 9 2 4 4 3 1 3 8 21 19 13 11 18 17 15 15 10 7 5 6 6 6 7 9 10 10 10
4 3 5 5 5 5 6 8 10 12 12 13 15 18 20 19 17 22 27 7 3 4 5 4 11 3 3 7 17 16 13 11 10 9 9 3 3 5 3 5 12 7 10 10 15 5 14
4 4 3 4 5 5 6 8 10 12 12 13 14 17 18 15 14 21 27 4 7 5 8 4 4 2 4 11 14 11 14 14 3 6 6 6 6 12 10 14 19 17 21 22 15 9 18
5 6 5 5 5 6 6 8 10 12 13 14 15 17 18 13 12 14 24 9 6 2 5 11 8 7 5 6 6 7 13 6 6 8 9 8 13 15 14 18 19 21 23 26 22 19 18
7 7 7 6 6 7 7 8 10 12 15 15 15 17 18 11 9 12 19 17 9 5 2 4 3 3 5 6 5 5 7 5 3 6 6 7 16 23 22 21 20 23 23 21 21 16 22
7 9 7 7 7 7 7 9 10 12 15 14 15 17 16 15 4 20 13 14 9 6 3 4 4 4 6 5 4 4 2 3 5 8 10 7 8 19 24 23 20 23 19 22 22 16 15
9 10 8 8 8 8 9 9 10 13 15 13 14 17 12 8 6 9 14 13 9 2 6 5 2 0 6 7 10 2 6 2 2 7 4 11 16 17 21 20 23 17 15 21 23 15 15
12 8 7 6 5 7 7 8 10 12 13 11 14 12 11 8 8 11 14 7 5 4 1 0 3 9 11 9 7 3 6 4 3 3 7 11 12 15 21 16 22 25 22 20 16 15 16
13 9 7 8 7 6 8 9 9 10 9 9 10 7 8 8 7 18 12 5 4 6 8 5 7 9 9 9 5 12 11 9 2 8 14 20 10 15 8 15 19 19 13 8 10 11 11
12 11 11 9 9 9 5 6 7 8 7 9 8 6 3 4 15 11 9 3 8 6 5 8 9 14 2 13 8 9 8 5 7 10 10 8 15 17 20 16 14 10 7 6 10 9 12
14 12 9 10 10 8 8 6 6 5 8 10 9 1 3 11 7 9 2 6 6 3 5 7 10 5 6 14 8 10 9 6 6 11 8 7 9 24 10 16 4 8 10 11 9 7 9
16 14 12 10 11 10 9 7 5 5 8 10 8 6 3 9 10 5 4 3 1 2 5 4 3 5 7 9 7 12 7 7 7 8 5 5 11 8 22 8 8 11 8 6 2 3 6
19 16 14 12 12 10 9 9 7 5 6 6 4 0 4 8 7 4 3 4 3 7 4 4 4 5 5 8 9 9 5 4 7 8 9 5 3 13 13 7 16 15 8 6 1 3 3
23 20 17 14 12 11 8 8 7 5 5 5 4 2 6 7 4 2 2 4 3 2 4 3 3 4 4 8 5 5 4 9 2 6 6 4 4 5 18 21 12 9 10 12 4 7 4
25 22 20 16 14 12 9 9 8 3 3 4 0 1 1 3 3 0 4 4 2 2 3 3 3 3 5 5 4 5 7 12 8 13 10 6 3 7 13 5 9 8 9 8 5 3 4
23 21 20 18 16 14 11 9 10 6 3 2 3 1 3 4 2 1 1 3 2 5 2 1 3 5 4 5 6 6 11 7 13 14 16 7 5 6 6 11 14 14 14 11 6 3 6
24 23 21 19 17 15 13 11 12 8 6 1 2 3 4 2 3 2 2 1 3 3 5 1 1 4 6 4 8 9 9 17 11 10 6 4 3 6 13 15 16 18 20 16 13 10 7
24 24 22 21 19 17 15 13 13 9 8 2 4 2 2 1 7 7 5 3 3 5 1 2 4 6 6 4 6 14 12 7 6 3 6 8 4 13 14 13 13 18 18 19 17 15 13
26 24 23 22 21 19 17 15 16 12 10 4 4 1 3 3 2 4 5 5 7 1 2 1 5 4 5 9 5 5 7 10 11 13 12 7 3 2 5 6 13 8 9 14 12 12 9
26 25 23 23 21 20 18 16 18 16 17 3 3 2 3 3 3 5 7 10 9 5 5 3 4 4 3 7 6 7 13 17 16 17 12 7 2 2 5 5 3 8 9 13 13 6 10
27 27 24 24 23 22 19 18 18 19 15 14 5 3 2 2 3 7 7 6 5 3 4 6 4 3 4 6 4 6 5 4 6 11 15 16 7 3 2 3 9 10 8 8 4 4 9
28 26 25 25 24 22 22 19 16 18 15 14 12 5 2 3 5 5 3 3 1 1 4 2 4 2 3 1 3 1 3 3 4 6 3 14 13 6 2 4 5 3 19 21 10 3 14
28 27 26 25 25 23 21 20 21 18 16 13 5 9 2 2 4 2 2 3 2 2 2 2 2 3 4 2 1 3 4 4 3 3 4 4 2 11 9 5 4 11 14 17 4 4 14
28 27 26 25 25 24 22 20 20 19 15 15 9 9 5 2 5 5 5 1 2 1 4 3 4 2 1 2 2 4 2 3 4 4 4 2 2 2 2 1 6 9 12 3 7 13 5
27 26 26 25 25 24 23 22 20 19 17 14 6 10 11 3 4 12 10 12 9 5 2 3 5 1 4 2 1 1 2 2 2 4 2 4 4 1 2 4 17 11 11 7 7 3 10
Wind_Direction
22 29 29 26 22 21 18 22 16 9 4 359 353 347 341 339 336 334 335 335 335 332 330 330 337 349 8 307 53 0 0 351 345 341 324 319 326 320 285 284 307 252 261 269 279 280 276
359 9 14 16 9 9 18 16 11 7 3 356 349 344 341 336 334 338 340 339 339 338 340 337 340 356 333 93 360 18 8 352 340 332 323 327 290 315 288 274 266 313 307 269 265 270 269
308 325 347 355 357 6 9 4 2 360 355 353 347 344 342 339 343 345 344 344 343 345 351 352 359 38 316 271 356 7 351 341 335 333 254 289 304 332 337 323 309 313 304 307 268 257 269
293 319 330 341 360 8 4 358 357 353 353 352 347 342 340 341 346 343 339 336 332 330 20 31 40 59 275 18 356 352 339 329 328 324 320 314 263 286 261 277 317 299 291 255 252 259 264
277 299 317 334 349 352 356 355 354 355 354 349 347 343 340 344 351 348 347 339 319 251 15 26 3 198 49 358 357 336 333 314 329 320 314 298 282 213 295 300 300 237 253 256 279 229 247
267 288 304 318 337 345 351 352 356 355 349 344 345 346 345 356 2 356 358 11 77 33 315 292 282 318 10 343 332 329 355 343 328 318 332 305 279 222 196 214 236 227 256 264 250 291 238
260 278 285 301 319 334 341 346 349 350 347 345 345 346 351 1 11 14 8 59 11 16 24 359 318 332 300 328 321 340 359 337 357 357 327 283 275 239 239 226 252 261 275 275 273 252 254
277 279 284 298 310 318 327 331 338 344 346 346 348 352 357 1 5 24 44 64 108 167 331 287 230 216 298 276 285 302 20 40 12 350 328 331 284 271 267 243 254 254 253 259 277 275 285
280 288 285 289 301 303 311 318 327 338 344 346 349 354 356 353 14 21 52 40 26 6 223 290 179 229 271 251 278 353 33 343 304 310 333 299 297 304 296 277 250 255 259 266 263 271 273
266 290 288 287 296 293 303 312 320 333 341 348 351 354 359 358 359 349 58 4 7 356 91 140 207 189 284 264 211 98 346 218 345 324 312 271 291 297 299 290 285 254 255 265 269 271 256
247 280 279 288 279 282 297 307 318 331 339 345 350 350 4 14 349 14 340 336 340 331 65 323 81 283 303 352 293 246 259 174 29 331 341 277 299 292 287 295 297 303 306 252 260 267 271
252 255 268 276 282 284 296 307 317 328 337 346 348 359 5 16 327 339 320 327 318 51 353 27 56 359 347 321 294 343 17 23 169 321 297 284 277 272 262 277 292 293 294 293 260 249 257
247 243 241 249 271 290 297 304 314 325 335 343 349 358 359 351 331 323 345 333 48 87 271 25 347 333 298 282 323 21 356 352 33 353 348 326 322 330 218 269 283 271 301 283 259 247 253
241 235 235 250 260 282 286 315 310 323 336 334 329 328 68 356 316 353 340 61 70 262 27 5 335 300 298 17 9 345 322 337 46 17 322 342 324 14 318 313 318 297 270 279 277 257 271
235 234 233 241 255 245 266 287 309 321 333 326 313 319 3 320 14 352 26 53 177 351 19 337 319 358 7 357 345 344 353 30 49 27 3 311 300 307 330 332 281 300 271 288 304 293 274
232 232 232 230 244 249 257 269 281 311 327 330 328 286 1 354 344 353 70 148 253 26 13 333 314 27 349 338 352 354 321 56 1 353 2 309 299 308 330 304 331 347 339 275 255 291 277
230 231 233 235 241 248 256 253 257 297 312 317 301 89 348 341 356 42 113 215 296 19 339 9 3 311 325 333 354 330 300 76 6 348 15 351 292 305 326 10 330 326 20 2 290 130 196
229 229 234 235 235 239 241 239 237 282 298 301 266 41 336 7 50 27 140 348 342 284 357 302 277 289 347 352 310 319 291 356 319 315 353 341 271 288 301 289 47 77 57 34 7 351 312
233 236 229 229 227 232 236 235 225 243 306 322 39 111 340 38 127 173 262 255 272 291 343 20 335 360 355 331 311 289 346 340 6 4 357 339 339 325 321 356 5 43 3 5 309 220 281
227 226 222 224 224 227 232 234 215 215 228 253 109 119 333 34 165 189 195 302 290 148 237 280 305 315 309 320 299 305 315 311 341 327 319 297 223 225 261 292 310 314 321 313 256 259 295
226 225 221 221 222 222 223 226 208 207 199 175 64 227 190 192 282 230 316 305 314 283 167 151 269 336 336 320 308 277 316 319 329 318 334 348 293 316 294 307 311 304 302 313 307 292 270
224 224 222 220 220 218 219 223 209 203 190 219 140 146 294 236 145 171 190 227 243 279 243 182 301 320 344 315 285 304 318 328 268 357 12 334 296 325 303 291 282 290 289 287 284 285 277
222 220 219 220 221 218 216 218 211 201 187 237 237 151 94 281 240 154 205 199 220 170 337 239 259 286 298 286 299 292 278 274 264 279 281 261 258 323 270 301 325 315 237 249 268 286 288
221 220 220 219 219 216 214 216 210 205 203 285 291 293 102 258 222 203 219 204 227 240 232 287 321 284 318 354 326 298 272 265 254 251 224 229 250 239 278 310 347 244 292 301 294 359 32
222 222 219 220 216 215 215 216 216 210 216 225 265 328 109 219 253 293 255 243 252 259 256 243 250 109 26 33 350 342 323 344 261 227 219 206 209 276 267 225 269 292 324 19 49 38 19
224 222 219 218 216 216 214 211 217 217 213 226 243 299 122 127 243 243 321 338 148 254 316 327 125 96 86 83 61 209 278 302 292 321 288 184 197 185 173 246 237 28 6 344 310 199 359
222 221 219 218 218 216 216 216 215 215 215 213 239 212 257 157 269 182 171 192 231 102 145 9 26 15 124 112 136 214 254 277 263 288 352 3 172 222 239 266 266 33 2 340 296 297 325
222 219 218 217 218 216 214 212 212 213 216 209 224 214 202 207 286 292 320 319 330 146 146 246 31 299 40 126 158 242 225 282 322 316 328 303 309 278 279 296 273 349 335 308 233 276 317
218 218 217 216 215 215 214 210 209 211 208 203 225 221 230 228 248 328 288 267 258 254 152 186 194 39 199 133 348 13 330 340 343 278 300 270 182 255 265 259 319 347 337 228 244 224 268